• In Belarus
  • List of Countries
  • For 7 days
  • Water Temperature
  • Satellite Maps
  • Weather Map
  • Weather Widgets
  • user-avatar
    Login

    Hourly Weather Sevan

    Today, 21 April, Sunday

    Time Temperature Precipitation Wind Pressure Humidity
    00:00 +1°C° 0 mm 2 mps 637 mmHg 69%
    01:00 +1°C° 0.1 mm 2 mps 637 mmHg 70%
    02:00 +1°C° 0.1 mm 2 mps 637 mmHg 70%
    03:00 +2°C° 0 mm 2 mps 637 mmHg 71%
    04:00 +2°C° 0.2 mm 2 mps 637 mmHg 71%
    05:00 +2°C° 0.2 mm 2 mps 637 mmHg 71%
    06:00 +2°C° 0.2 mm 2 mps 637 mmHg 71%
    07:00 +3°C° 0.2 mm 2 mps 637 mmHg 67%
    08:00 +5°C° 0.2 mm 1 mps 637 mmHg 63%
    09:00 +5°C° 0 mm 2 mps 637 mmHg 59%
    10:00 +6°C° 0.1 mm 2 mps 637 mmHg 57%
    11:00 +7°C° 0.1 mm 2 mps 638 mmHg 55%
    12:00 +8°C° 0.1 mm 2 mps 638 mmHg 53%
    13:00 +8°C° 0.2 mm 2 mps 637 mmHg 53%
    14:00 +8°C° 0.2 mm 2 mps 637 mmHg 53%
    15:00 +8°C° 0 mm 3 mps 637 mmHg 55%
    16:00 +7°C° 0.2 mm 3 mps 637 mmHg 57%
    17:00 +5°C° 0.2 mm 4 mps 637 mmHg 60%
    18:00 +5°C° 0.2 mm 5 mps 637 mmHg 63%
    19:00 +3°C° 0.1 mm 5 mps 637 mmHg 65%
    20:00 +2°C° 0.1 mm 5 mps 637 mmHg 67%
    21:00 +1°C° 0.1 mm 5 mps 637 mmHg 70%
    22:00 +1°C° 0.2 mm 5 mps 637 mmHg 70%
    23:00 +1°C° 0.2 mm 5 mps 637 mmHg 69%

    Tomorrow, 22 April, Monday

    Time Temperature Precipitation Wind Pressure Humidity
    00:00 +1°C° 0.2 mm 4 mps 638 mmHg 69%
    01:00 0°C° 0.2 mm 4 mps 637 mmHg 70%
    02:00 0°C° 0.2 mm 4 mps 637 mmHg 70%
    03:00 0°C° 0.2 mm 4 mps 637 mmHg 70%
    04:00 0°C° 0.1 mm 4 mps 637 mmHg 70%
    05:00 0°C° 0.1 mm 4 mps 637 mmHg 69%
    06:00 0°C° 0.1 mm 4 mps 637 mmHg 69%
    07:00 +1°C° 0 mm 4 mps 637 mmHg 64%
    08:00 +3°C° 0 mm 4 mps 637 mmHg 60%
    09:00 +4°C° 0 mm 3 mps 637 mmHg 55%
    10:00 +5°C° 0.1 mm 4 mps 637 mmHg 53%
    11:00 +6°C° 0.1 mm 4 mps 637 mmHg 51%
    12:00 +7°C° 0.1 mm 4 mps 637 mmHg 49%
    13:00 +7°C° 0.1 mm 4 mps 637 mmHg 50%
    14:00 +7°C° 0.1 mm 4 mps 637 mmHg 51%
    15:00 +7°C° 0.1 mm 4 mps 637 mmHg 51%
    16:00 +6°C° 0.1 mm 4 mps 637 mmHg 55%
    17:00 +5°C° 0.1 mm 4 mps 637 mmHg 58%
    18:00 +4°C° 0.1 mm 4 mps 637 mmHg 61%
    19:00 +3°C° 0.1 mm 4 mps 638 mmHg 63%
    20:00 +3°C° 0.1 mm 3 mps 639 mmHg 65%
    21:00 +2°C° 0.1 mm 3 mps 639 mmHg 67%
    22:00 +2°C° 0.1 mm 3 mps 639 mmHg 68%
    23:00 +1°C° 0.1 mm 3 mps 640 mmHg 70%

    Day after tomorrow, 23 April, Tuesday

    Time Temperature Precipitation Wind Pressure Humidity
    00:00 +2°C° 0.1 mm 2 mps 640 mmHg 71%
    01:00 +2°C° 0.1 mm 2 mps 640 mmHg 72%
    02:00 +1°C° 0.1 mm 2 mps 640 mmHg 74%
    03:00 +1°C° 0.1 mm 2 mps 641 mmHg 75%
    04:00 +1°C° 0.1 mm 2 mps 641 mmHg 74%
    05:00 +1°C° 0.1 mm 2 mps 641 mmHg 74%
    06:00 +1°C° 0.1 mm 2 mps 642 mmHg 73%
    07:00 +4°C° 0 mm 1 mps 642 mmHg 67%
    08:00 +5°C° 0 mm 1 mps 643 mmHg 60%
    09:00 +7°C° 0 mm 1 mps 643 mmHg 54%
    10:00 +7°C° 0.1 mm 1 mps 643 mmHg 53%
    11:00 +8°C° 0.1 mm 1 mps 643 mmHg 52%
    12:00 +8°C° 0.1 mm 1 mps 643 mmHg 51%
    13:00 +9°C° 0.2 mm 1 mps 643 mmHg 51%
    14:00 +9°C° 0.2 mm 1 mps 643 mmHg 52%
    15:00 +9°C° 0.2 mm 1 mps 643 mmHg 52%
    16:00 +9°C° 0.2 mm 1 mps 643 mmHg 55%
    17:00 +8°C° 0.2 mm 1 mps 643 mmHg 58%
    18:00 +8°C° 0.2 mm 1 mps 643 mmHg 61%
    19:00 +7°C° 0.3 mm 1 mps 643 mmHg 64%
    20:00 +6°C° 0.3 mm 1 mps 644 mmHg 66%
    21:00 +6°C° 0.3 mm 1 mps 645 mmHg 69%
    22:00 +6°C° 0.3 mm 1 mps 645 mmHg 70%
    23:00 +5°C° 0.3 mm 1 mps 645 mmHg 71%

    24 April, Wednesday

    Time Temperature Precipitation Wind Pressure Humidity
    00:00 +5°C° 0.3 mm 1 mps 645 mmHg 72%
    01:00 +5°C° 0.2 mm 1 mps 645 mmHg 74%
    02:00 +4°C° 0.2 mm 1 mps 645 mmHg 75%
    03:00 +4°C° 0.2 mm 1 mps 645 mmHg 76%
    04:00 +4°C° 0.1 mm 1 mps 645 mmHg 76%
    05:00 +4°C° 0.1 mm 1 mps 646 mmHg 76%
    06:00 +4°C° 0.1 mm 1 mps 646 mmHg 77%
    07:00 +5°C° 0.1 mm 1 mps 646 mmHg 72%
    08:00 +6°C° 0.1 mm 1 mps 646 mmHg 67%
    09:00 +7°C° 0.1 mm 1 mps 646 mmHg 62%
    10:00 +7°C° 0.1 mm 2 mps 646 mmHg 59%
    11:00 +7°C° 0.1 mm 2 mps 645 mmHg 57%
    12:00 +8°C° 0.1 mm 2 mps 645 mmHg 54%
    13:00 +9°C° 0.1 mm 2 mps 645 mmHg 53%
    14:00 +9°C° 0.1 mm 2 mps 644 mmHg 51%
    15:00 +9°C° 0.1 mm 2 mps 644 mmHg 50%
    16:00 +9°C° 0.1 mm 2 mps 644 mmHg 52%
    17:00 +10°C° 0.1 mm 1 mps 644 mmHg 53%
    18:00 +9°C° 0.1 mm 1 mps 644 mmHg 55%
    19:00 +8°C° 0.1 mm 1 mps 644 mmHg 59%
    20:00 +7°C° 0.1 mm 1 mps 644 mmHg 63%
    21:00 +5°C° 0.1 mm 2 mps 644 mmHg 68%
    22:00 +5°C° 0.1 mm 2 mps 644 mmHg 70%
    23:00 +4°C° 0.1 mm 2 mps 644 mmHg 72%

    25 April, Thursday

    Time Temperature Precipitation Wind Pressure Humidity
    00:00 +5°C° 0.1 mm 1 mps 645 mmHg 75%
    01:00 +5°C° 0.1 mm 1 mps 645 mmHg 76%
    02:00 +4°C° 0.1 mm 1 mps 645 mmHg 77%
    03:00 +4°C° 0.1 mm 1 mps 645 mmHg 79%
    04:00 +4°C° 0 mm 1 mps 645 mmHg 78%
    05:00 +4°C° 0 mm 1 mps 645 mmHg 77%
    06:00 +4°C° 0 mm 1 mps 645 mmHg 77%
    07:00 +5°C° 0 mm 1 mps 645 mmHg 70%
    08:00 +7°C° 0 mm 1 mps 645 mmHg 62%
    09:00 +9°C° 0 mm 1 mps 645 mmHg 55%
    10:00 +10°C° 0 mm 1 mps 645 mmHg 52%
    11:00 +11°C° 0 mm 1 mps 645 mmHg 50%
    12:00 +12°C° 0 mm 1 mps 645 mmHg 47%
    13:00 +12°C° 0 mm 1 mps 645 mmHg 47%
    14:00 +12°C° 0 mm 1 mps 645 mmHg 47%
    15:00 +12°C° 0 mm 1 mps 645 mmHg 46%
    16:00 +12°C° 0.1 mm 1 mps 644 mmHg 49%
    17:00 +11°C° 0.1 mm 1 mps 644 mmHg 52%
    18:00 +11°C° 0.1 mm 1 mps 644 mmHg 54%
    19:00 +8°C° 0 mm 2 mps 644 mmHg 58%
    20:00 +7°C° 0 mm 2 mps 645 mmHg 62%
    21:00 +5°C° 0 mm 2 mps 645 mmHg 66%
    22:00 +5°C° 0 mm 2 mps 645 mmHg 67%
    23:00 +5°C° 0 mm 2 mps 645 mmHg 68%

    26 April, Friday

    Time Temperature Precipitation Wind Pressure Humidity
    00:00 +4°C° 0 mm 2 mps 645 mmHg 68%
    01:00 +4°C° 0 mm 2 mps 645 mmHg 68%
    02:00 +4°C° 0 mm 2 mps 644 mmHg 68%
    03:00 +3°C° 0 mm 2 mps 644 mmHg 68%
    04:00 +4°C° 0 mm 2 mps 644 mmHg 67%
    05:00 +4°C° 0 mm 2 mps 645 mmHg 67%
    06:00 +4°C° 0 mm 2 mps 645 mmHg 66%
    07:00 +6°C° 0 mm 1 mps 645 mmHg 61%
    08:00 +8°C° 0 mm 1 mps 645 mmHg 55%
    09:00 +10°C° 0 mm 1 mps 645 mmHg 50%
    10:00 +11°C° 0 mm 1 mps 645 mmHg 47%
    11:00 +12°C° 0 mm 1 mps 645 mmHg 45%
    12:00 +12°C° 0 mm 1 mps 644 mmHg 43%
    13:00 +13°C° 0 mm 1 mps 644 mmHg 42%
    14:00 +13°C° 0 mm 1 mps 644 mmHg 42%
    15:00 +13°C° 0 mm 1 mps 643 mmHg 41%
    16:00 +13°C° 0.1 mm 1 mps 643 mmHg 43%
    17:00 +12°C° 0.1 mm 1 mps 643 mmHg 45%
    18:00 +10°C° 0.1 mm 0 mps 643 mmHg 48%
    19:00 +10°C° 0 mm 1 mps 643 mmHg 52%
    20:00 +9°C° 0 mm 1 mps 643 mmHg 57%
    21:00 +8°C° 0 mm 1 mps 643 mmHg 61%
    22:00 +7°C° 0 mm 1 mps 643 mmHg 65%
    23:00 +7°C° 0 mm 1 mps 643 mmHg 68%
    Show more